Total_Precipitation_Accumulation
0.00 0.00 0.00 0.00 0.05 0.11 0.37 0.50 0.12 0.07 0.08 0.04 0.01 0.04 0.07 0.02 0.02 0.07 0.00 0.00 0.00 0.00 0.00 0.17 0.11 0.00 0.00 0.00 0.00 0.00 0.00 0.01 0.02 0.01 0.00 0.00 0.00 0.00 0.00 0.00 0.03 0.02 0.01 0.01 0.01 0.02 0.03 0.05 0.09
0.00 0.00 0.01 0.00 0.07 0.21 0.40 0.37 0.13 0.06 0.04 0.03 0.02 0.00 0.04 0.05 0.02 0.04 0.00 0.00 0.00 0.00 0.00 0.02 0.04 0.01 0.00 0.00 0.00 0.00 0.00 0.01 0.00 0.00 0.00 0.00 0.01 0.00 0.00 0.00 0.02 0.02 0.03 0.01 0.02 0.04 0.04 0.07 0.13
0.00 0.00 0.01 0.00 0.19 0.32 0.35 0.17 0.07 0.09 0.08 0.03 0.00 0.00 0.00 0.00 0.01 0.02 0.00 0.00 0.00 0.00 0.00 0.01 0.02 0.00 0.00 0.00 0.00 0.00 0.03 0.01 0.00 0.00 0.00 0.01 0.00 0.00 0.00 0.00 0.02 0.01 0.01 0.03 0.04 0.03 0.01 0.03 0.06
0.00 0.00 0.00 0.01 0.05 0.06 0.23 0.26 0.09 0.16 0.11 0.02 0.00 0.00 0.00 0.00 0.00 0.00 0.00 0.00 0.00 0.00 0.00 0.01 0.01 0.00 0.00 0.00 0.00 0.02 0.03 0.01 0.01 0.01 0.02 0.01 0.00 0.00 0.01 0.00 0.01 0.00 0.00 0.02 0.07 0.03 0.01 0.02 0.04
0.00 0.00 0.01 0.13 0.19 0.11 0.07 0.17 0.08 0.04 0.02 0.00 0.00 0.00 0.00 0.01 0.00 0.00 0.00 0.00 0.00 0.00 0.00 0.01 0.01 0.00 0.00 0.00 0.01 0.02 0.03 0.02 0.01 0.01 0.02 0.01 0.01 0.00 0.00 0.00 0.01 0.02 0.01 0.04 0.04 0.01 0.00 0.00 0.00
0.00 0.00 0.08 0.08 0.04 0.01 0.01 0.03 0.01 0.00 0.00 0.00 0.00 0.00 0.00 0.01 0.00 0.00 0.00 0.00 0.00 0.00 0.01 0.01 0.01 0.00 0.00 0.00 0.01 0.02 0.05 0.02 0.02 0.01 0.02 0.02 0.01 0.01 0.00 0.00 0.00 0.01 0.01 0.01 0.01 0.01 0.00 0.01 0.04
0.00 0.00 0.01 0.01 0.01 0.02 0.02 0.00 0.00 0.00 0.00 0.00 0.00 0.00 0.00 0.01 0.00 0.00 0.00 0.00 0.00 0.00 0.00 0.01 0.01 0.00 0.01 0.01 0.02 0.03 0.04 0.02 0.02 0.01 0.01 0.03 0.03 0.06 0.04 0.00 0.00 0.00 0.02 0.01 0.04 0.06 0.06 0.00 0.01
0.00 0.00 0.01 0.03 0.03 0.00 0.00 0.00 0.00 0.00 0.00 0.00 0.00 0.00 0.00 0.00 0.00 0.00 0.00 0.00 0.00 0.00 0.00 0.01 0.01 0.00 0.01 0.02 0.02 0.03 0.02 0.02 0.03 0.02 0.01 0.07 0.11 0.30 0.35 0.09 0.01 0.00 0.00 0.00 0.05 0.07 0.08 0.08 0.04
0.00 0.00 0.01 0.03 0.04 0.01 0.00 0.00 0.00 0.00 0.00 0.00 0.00 0.00 0.00 0.00 0.00 0.00 0.00 0.01 0.01 0.01 0.01 0.00 0.00 0.00 0.01 0.01 0.01 0.04 0.04 0.02 0.05 0.04 0.00 0.06 0.10 0.25 0.34 0.27 0.02 0.00 0.00 0.00 0.04 0.04 0.01 0.06 0.11
0.00 0.00 0.00 0.00 0.00 0.00 0.00 0.00 0.00 0.00 0.00 0.00 0.00 0.00 0.00 0.00 0.00 0.00 0.00 0.00 0.00 0.01 0.01 0.00 0.00 0.00 0.01 0.01 0.00 0.02 0.05 0.05 0.03 0.05 0.02 0.01 0.00 0.01 0.04 0.12 0.04 0.01 0.03 0.11 0.13 0.07 0.02 0.05 0.16
0.00 0.00 0.00 0.00 0.00 0.00 0.00 0.00 0.00 0.00 0.00 0.00 0.00 0.00 0.00 0.00 0.00 0.00 0.00 0.00 0.00 0.00 0.00 0.00 0.00 0.00 0.00 0.00 0.00 0.01 0.02 0.05 0.01 0.04 0.01 0.00 0.00 0.00 0.01 0.00 0.02 0.01 0.14 0.24 0.15 0.17 0.14 0.15 0.11
0.00 0.00 0.00 0.00 0.00 0.00 0.00 0.00 0.00 0.00 0.00 0.00 0.00 0.00 0.00 0.00 0.00 0.00 0.00 0.00 0.00 0.00 0.00 0.00 0.00 0.00 0.00 0.00 0.00 0.00 0.00 0.03 0.00 0.03 0.01 0.00 0.00 0.00 0.00 0.00 0.00 0.00 0.03 0.16 0.14 0.16 0.06 0.05 0.07
0.00 0.00 0.00 0.00 0.00 0.00 0.00 0.00 0.00 0.00 0.00 0.00 0.00 0.00 0.00 0.00 0.00 0.00 0.01 0.00 0.00 0.00 0.00 0.00 0.00 0.00 0.00 0.00 0.00 0.00 0.00 0.00 0.00 0.01 0.05 0.01 0.00 0.00 0.00 0.00 0.01 0.00 0.00 0.00 0.03 0.32 0.19 0.22 0.26
0.00 0.00 0.00 0.00 0.00 0.00 0.00 0.00 0.00 0.00 0.00 0.00 0.00 0.00 0.00 0.00 0.00 0.00 0.00 0.00 0.00 0.00 0.00 0.00 0.00 0.00 0.00 0.00 0.00 0.00 0.00 0.00 0.00 0.00 0.06 0.08 0.00 0.09 0.08 0.08 0.12 0.07 0.02 0.00 0.00 0.12 0.21 0.17 0.14
0.00 0.00 0.00 0.00 0.00 0.00 0.00 0.00 0.00 0.00 0.00 0.00 0.00 0.00 0.00 0.00 0.00 0.00 0.00 0.00 0.00 0.00 0.00 0.00 0.00 0.00 0.00 0.00 0.00 0.00 0.00 0.00 0.03 0.03 0.01 0.05 0.05 0.18 0.14 0.04 0.08 0.09 0.07 0.03 0.01 0.06 0.14 0.20 0.08
0.00 0.00 0.00 0.00 0.00 0.00 0.00 0.00 0.00 0.00 0.00 0.00 0.00 0.00 0.00 0.01 0.00 0.00 0.00 0.00 0.00 0.00 0.00 0.00 0.00 0.00 0.00 0.00 0.00 0.02 0.01 0.00 0.11 0.09 0.00 0.02 0.11 0.30 0.23 0.08 0.07 0.27 0.12 0.10 0.14 0.32 0.28 0.25 0.18
0.00 0.00 0.00 0.00 0.00 0.00 0.00 0.00 0.00 0.00 0.00 0.00 0.00 0.00 0.00 0.05 0.08 0.04 0.00 0.01 0.04 0.02 0.00 0.00 0.00 0.00 0.00 0.00 0.01 0.02 0.06 0.00 0.11 0.21 0.08 0.03 0.05 0.24 0.19 0.10 0.08 0.20 0.08 0.10 0.24 0.32 0.29 0.31 0.31
0.00 0.00 0.00 0.00 0.00 0.00 0.00 0.00 0.00 0.00 0.00 0.00 0.00 0.00 0.00 0.01 0.04 0.12 0.06 0.03 0.06 0.05 0.01 0.00 0.00 0.00 0.00 0.00 0.00 0.02 0.03 0.04 0.05 0.15 0.10 0.11 0.09 0.03 0.17 0.17 0.18 0.24 0.11 0.22 0.18 0.35 0.39 0.31 0.32
0.00 0.00 0.00 0.00 0.00 0.00 0.00 0.00 0.00 0.00 0.00 0.00 0.00 0.00 0.00 0.00 0.02 0.14 0.04 0.07 0.04 0.03 0.03 0.00 0.00 0.01 0.00 0.01 0.01 0.01 0.02 0.06 0.01 0.02 0.12 0.21 0.17 0.29 0.39 0.55 0.56 0.19 0.22 0.24 0.21 0.18 0.36 0.33 0.27
0.00 0.00 0.00 0.00 0.00 0.00 0.00 0.00 0.00 0.00 0.00 0.00 0.00 0.00 0.00 0.00 0.00 0.01 0.01 0.00 0.00 0.00 0.01 0.01 0.00 0.02 0.02 0.02 0.06 0.08 0.17 0.22 0.26 0.15 0.19 0.35 0.35 0.38 0.23 0.48 0.47 0.24 0.06 0.05 0.04 0.18 0.40 0.38 0.19
0.00 0.00 0.00 0.00 0.00 0.00 0.00 0.00 0.00 0.00 0.00 0.00 0.00 0.00 0.00 0.00 0.00 0.00 0.00 0.00 0.00 0.00 0.00 0.01 0.02 0.01 0.08 0.09 0.09 0.11 0.22 0.23 0.40 0.67 0.48 0.34 0.30 0.23 0.15 0.30 0.34 0.19 0.19 0.18 0.31 0.28 0.25 0.51 0.31
0.00 0.00 0.00 0.00 0.00 0.00 0.00 0.00 0.00 0.00 0.00 0.00 0.00 0.00 0.00 0.00 0.00 0.00 0.00 0.00 0.00 0.00 0.00 0.00 0.01 0.01 0.07 0.15 0.11 0.09 0.04 0.10 0.15 0.25 0.49 0.64 0.24 0.05 0.05 0.26 0.35 0.63 0.41 0.29 0.15 0.09 0.17 0.41 0.38
0.00 0.00 0.00 0.00 0.00 0.00 0.00 0.00 0.00 0.00 0.00 0.00 0.00 0.00 0.00 0.00 0.00 0.00 0.00 0.00 0.00 0.00 0.00 0.00 0.00 0.01 0.10 0.17 0.13 0.09 0.07 0.09 0.18 0.23 0.18 0.21 0.28 0.13 0.09 0.15 0.29 0.30 0.13 0.11 0.05 0.04 0.03 0.14 0.31
0.00 0.00 0.00 0.00 0.00 0.00 0.00 0.00 0.00 0.00 0.00 0.00 0.00 0.00 0.00 0.00 0.00 0.00 0.00 0.00 0.00 0.00 0.00 0.00 0.00 0.02 0.08 0.08 0.08 0.09 0.10 0.04 0.09 0.16 0.20 0.19 0.16 0.17 0.16 0.07 0.04 0.07 0.07 0.10 0.20 0.28 0.11 0.08 0.19
0.00 0.00 0.00 0.00 0.00 0.00 0.00 0.00 0.00 0.00 0.00 0.00 0.00 0.00 0.00 0.00 0.00 0.00 0.00 0.00 0.02 0.00 0.01 0.00 0.00 0.01 0.01 0.01 0.02 0.03 0.06 0.06 0.04 0.10 0.13 0.12 0.10 0.11 0.19 0.18 0.12 0.11 0.03 0.13 0.32 0.25 0.14 0.16 0.10
0.00 0.00 0.00 0.00 0.00 0.00 0.00 0.00 0.00 0.00 0.00 0.00 0.00 0.00 0.00 0.00 0.00 0.00 0.00 0.00 0.03 0.01 0.01 0.00 0.00 0.00 0.00 0.00 0.00 0.02 0.02 0.02 0.02 0.02 0.02 0.05 0.10 0.15 0.09 0.07 0.11 0.11 0.05 0.06 0.08 0.11 0.12 0.08 0.07
0.00 0.00 0.00 0.00 0.00 0.00 0.00 0.00 0.00 0.00 0.00 0.00 0.00 0.00 0.00 0.00 0.00 0.00 0.00 0.00 0.00 0.00 0.00 0.00 0.00 0.00 0.00 0.00 0.00 0.00 0.01 0.02 0.03 0.01 0.00 0.05 0.18 0.11 0.13 0.09 0.12 0.04 0.07 0.14 0.10 0.05 0.10 0.15 0.08
0.00 0.00 0.00 0.00 0.00 0.00 0.00 0.00 0.00 0.00 0.00 0.00 0.00 0.00 0.00 0.00 0.00 0.00 0.00 0.00 0.00 0.00 0.00 0.00 0.00 0.00 0.00 0.00 0.00 0.00 0.00 0.06 0.03 0.06 0.02 0.00 0.04 0.09 0.12 0.10 0.06 0.04 0.04 0.20 0.14 0.06 0.15 0.23 0.33
0.00 0.00 0.00 0.00 0.00 0.00 0.00 0.00 0.00 0.00 0.00 0.00 0.00 0.00 0.00 0.00 0.00 0.00 0.00 0.00 0.00 0.00 0.00 0.00 0.00 0.00 0.00 0.00 0.00 0.00 0.00 0.02 0.05 0.00 0.00 0.00 0.01 0.07 0.08 0.07 0.04 0.02 0.03 0.07 0.23 0.34 0.40 0.31 0.26
0.00 0.00 0.00 0.00 0.00 0.00 0.00 0.00 0.00 0.00 0.00 0.00 0.00 0.00 0.00 0.00 0.00 0.00 0.00 0.00 0.00 0.00 0.00 0.00 0.00 0.00 0.00 0.00 0.00 0.00 0.00 0.00 0.01 0.00 0.00 0.00 0.00 0.01 0.01 0.02 0.07 0.05 0.02 0.04 0.21 0.37 0.52 0.57 0.40